Location: ????
(55.5675°N, 37.6272°E)
Time: 22:09:08
(UTC+00:00)

NOSS 2-3 (C) - Pass Details

Date: 14 April 2026
Orbit: 452 x 1721 km, 63.3° (Epoch: 13 May)

Event Time Altitude Azimuth Distance (km) Brightness Sun altitude
Rises 17:06:06 0° 308° (NW) 2,856 9.0 -5.2°
Reaches altitude 10° 17:08:06 10° 305° (NW) 2,072 8.0 -5.4°
Maximum altitude 17:12:44 65° 224° (SW) 880 4.4 -6.0°
Drops below altitude 10° 17:19:08 10° 144° (SE) 2,833 6.4 -6.8°
Enters shadow 17:20:38 - 143° (SE) 3,404 6.8 -7.0°
